Weather Roundup
Issued by NWS Chicago, IL

Home | Current Version | Previous Version | Graphics & Text | Print | Product List | Glossary On
Versions: 1 2 3 4 5 6 7 8 9 10 11 12 13 14 15 16 17 18 19 20 21 22 23 24 25 26 27 28 29 30 31 32 33 34 35 36 37 38 39 40 41 42 43 44 45 46 47 48 49 50
000
NZUS59 KLOT 252109
HRRLOT

CHICAGO AREA WEATHER ROUNDUP
NATIONAL WEATHER SERVICE CHICAGO/ROMEOVILLE IL
400 PM CDT SUN JUN 25 2017

NOTE: "FAIR" INDICATES FEW OR NO CLOUDS BELOW 12,000 FEET WITH NO
SIGNIFICANT WEATHER AND/OR OBSTRUCTIONS TO VISIBILITY.

* THESE STATIONS ARE NOT UNDER NWS QUALITY CONTROL. THEY ALSO MAY NOT
  REPORT WEATHER SUCH AS PRECIPITATION OR FOG.

ILZ005-006-012>014-019>023-252200-
NORTHEAST ILLINOIS

CITY           SKY/WX    TMP DP  RH WIND       PRES   REMARKS
OHARE          PTSUNNY   70  46  42 W16G25    30.07F
MIDWAY         PTSUNNY   71  47  42 W16G22    30.08F
AURORA         PTSUNNY   70  48  45 W24       30.11F
LANSING*       CLOUDY    71  43  36 W20G29    30.09F
JOLIET*        CLOUDY    73  48  42 W14G25    30.11S
WAUKEGAN       MOSUNNY   69  49  48 VRB5      30.05F
DUPAGE AIRPORT CLOUDY    69  51  52 W16G23    30.09F
WHEELING       PTSUNNY   71  48  43 W17G23    30.09S
MORRIS*        PTSUNNY   69  46  43 W17G25    30.10F
LEWIS AIRPORT* MOSUNNY   73  44  35 NW17G26   30.10F
NORTHERLY ISL    N/A     70  43  37 W8          N/A
$$

WIZ051-052-058>065-066-070>072-252200-
SOUTHEAST WISCONSIN

CITY           SKY/WX    TMP DP  RH WIND       PRES   REMARKS
MILWAUKEE      MOSUNNY   71  47  42 W16G23    30.04F
KENOSHA*       PTSUNNY   68  49  50 W12G23    30.06F
RACINE*        MOSUNNY   70  47  43 NW14G23   30.07S
WAUKESHA       MOSUNNY   64  46  52 W18G25    30.07F
WEST BEND      PTSUNNY   64  45  48 W17G23    30.04F
$$

INZ001>003-010>013-019-020-252200-
NORTHWEST INDIANA

CITY           SKY/WX    TMP DP  RH WIND       PRES   REMARKS
GARY*          PTSUNNY   73  39  29 W17G29    30.09F
MICHIGAN CITY* NOT AVBL
RENSSELAER*    NOT AVBL
VALPARAISO     PTSUNNY   73  45  36 W14       30.09F
$$

LMZ740>746-252200-
SOUTHERN LAKE MICHIGAN

STATION/POSITION TIME  SKY/WX   TEMP WIND        PRES    VSBY
                                AIR  DIR/SP/G
                 (UTC)          (F)  (DEG/KT/KT) (MB)    (MI)
HARRISON CRIB    2030            68  280/ 16/ 17   N/A
BURNHAM HARBOR   2100            69                N/A
CALUMET HARBOR   2048            71  220/  7/ 15 1018.0F
BURNS HARBOR     2040            68  280/ 10/ 12 1019.3F
MICHIGAN CITY    2040            66  260/ 10/ 11   N/A
$$

ABBREVIATIONS USED IN REMARKS
   TC - TEMPERATURE IN CELSIUS
  WCI - WIND CHILL INDEX
   HX - HEAT INDEX
  VSB - VISIBILITY
$$




USA.gov is the U.S. government's official web portal to all federal, state and local government web resources and services.